sat.trackr.live / text

‹ back to catalog

STARLINK-2624

NORAD 48358 · 2021-038F

PAYLOAD ACTIVE UNKNOWN

§ Identity

Operator
Country
US
Launch date
2021-05-04
Launch site
AFETR
Launch vehicle
Mass (kg)
RCS (m²)

Purposes: comms

External: N2YO · Heavens-Above · Gunter

§ Orbital elements

Epoch: 2026-05-24T20:57:01.977120Z

Period
94.02 min
Inclination
53.1605°
Eccentricity
0.0001510
Mean motion
15.31641056 rev/d
Perigee alt
469.9 km
Apogee alt
471.9 km
Semi-major
6,849.1 km
B*
4.8490e-4
RAAN
3.7997°
Arg perigee
87.0670°
Mean anomaly
273.0504°
Rev number
27,874

§ Raw data

STARLINK-26241 48358U 21038F   26144.87293955  .00014684  00000+0  48490-3 0  99972 48358  53.1605   3.7997 0001510  87.0670 273.0504 15.31641056278741

JSON: /api/v1/satellites/48358 · /tle

For live sub-satellite position, see the globe view (requires WebGL).

§ Visibility from observer

Set your observer location to see the next 7 days of passes ≥ 10°. The values pass through the URL so the page stays shareable.

No JS? Fill the form by hand. The geolocation button needs JavaScript.